Location: Kuppenheim
(48.8299°N, 8.2568°E)
Time: 10:55:20
(UTC+00:00)

Aureole 3 Rocket - Pass Details

Date: 20 June 2021
Orbit: 399 x 1739 km, 82.5° (Epoch: 27 July)

Event Time Altitude Azimuth Distance (km) Brightness Sun altitude
Rises 00:32:05 0° 357° (N) 2,555 7.6 -16.4°
Reaches altitude 10° 00:34:01 10° 4° (N) 1,777 6.7 -16.3°
Maximum altitude 00:37:43 44° 78° (ENE) 875 4.0 -16.1°
Enters shadow 00:42:09 12° 149° (SSE) 2,188 5.5 -15.9°
